sat.trackr.live / text

‹ back to catalog

STARLINK-4114

NORAD 53162 · 2022-083AG

PAYLOAD ACTIVE UNKNOWN

§ Identity

Operator
Country
US
Launch date
2022-07-17
Launch site
AFETR
Launch vehicle
Mass (kg)
RCS (m²)

Purposes: comms

External: N2YO · Heavens-Above · Gunter

§ Orbital elements

Epoch: 2026-09-20T00:11:57.571872Z

Period
94.01 min
Inclination
53.1603°
Eccentricity
0.0001069
Mean motion
15.31701941 rev/d
Perigee alt
470.0 km
Apogee alt
471.5 km
Semi-major
6,848.9 km
B*
2.7582e-5
RAAN
0.0725°
Arg perigee
61.5351°
Mean anomaly
298.5758°
Rev number
23,085

§ Raw data

STARLINK-41141 53162U 22083AG  26263.00830523  .00000491  00000+0  27582-4 0  99932 53162  53.1603   0.0725 0001069  61.5351 298.5758 15.31701941230852

JSON: /api/v1/satellites/53162 · /tle

For live sub-satellite position, see the globe view (requires WebGL).

§ Visibility from observer

Set your observer location to see the next 7 days of passes ≥ 10°. The values pass through the URL so the page stays shareable.

No JS? Fill the form by hand. The geolocation button needs JavaScript.